Vorticity
1 2 5 6 5 5 7 9 10 9 10 10 9 7 6 6 7 8 10 10 11 11 8 9 9 9 10 17 21 20 6 6 2 6 -5 -2 14 4 14 10 8 11 4
1 4 6 7 7 6 5 4 5 9 11 12 11 8 7 8 8 8 7 7 10 11 11 12 12 13 13 12 9 10 13 8 10 14 11 20 13 16 28 20 11 3 18
7 6 5 4 5 4 6 7 8 8 9 11 11 12 11 9 6 4 6 7 9 11 11 10 10 10 11 12 13 11 14 16 14 10 10 1 11 8 15 14 30 9 -1
2 2 2 1 1 3 4 6 7 6 12 13 9 12 10 7 9 10 10 10 7 8 8 11 11 7 5 5 5 5 7 13 14 13 14 10 6 16 20 28 2 8 9
2 2 4 5 7 10 11 10 11 14 17 14 6 7 5 11 12 10 12 16 14 9 9 6 7 7 9 11 12 11 9 11 9 9 8 9 18 18 9 19 8 -18 11
3 5 6 9 9 7 11 12 13 16 11 10 10 11 11 11 0 -2 8 10 9 18 18 15 13 12 11 11 10 8 8 11 8 7 10 15 19 12 46 -3 -8 24 61
4 7 12 14 17 19 18 18 18 18 16 16 11 11 14 18 16 18 19 13 10 12 11 13 13 14 15 14 13 11 10 9 9 14 14 17 18 14 14 39 -8 -13 2
14 18 21 20 20 21 21 19 15 13 16 21 20 21 17 17 20 18 15 15 14 13 12 12 12 8 1 4 7 6 10 12 15 15 14 18 19 18 15 33 37 -15 23
22 22 20 24 25 17 14 12 16 19 19 18 15 17 13 11 10 9 9 10 10 9 6 5 6 7 6 7 8 9 10 13 17 19 21 22 25 20 14 10 -26 27 15
21 26 21 13 11 14 20 22 17 13 11 9 9 8 8 8 7 9 9 9 10 12 10 11 9 12 18 23 25 27 29 28 18 21 23 30 4 15 16 8 13 21 13
20 12 14 23 20 13 10 8 5 5 4 7 8 9 9 10 12 14 15 17 19 20 22 26 25 20 20 22 17 20 27 25 19 22 22 12 28 20 10 15 12 19 9
15 18 11 6 7 7 5 4 5 6 8 8 8 8 12 18 23 24 24 23 22 22 25 24 24 24 21 17 13 28 19 16 16 9 45 -7 17 23 14 19 5 5 14
10 6 6 5 4 2 4 7 9 7 4 6 9 14 21 21 22 22 24 25 25 25 25 24 22 26 20 11 19 18 19 23 20 13 22 0 15 6 26 21 34 6 23
5 3 4 3 3 4 5 7 6 6 8 9 15 20 20 23 27 26 27 28 27 26 25 29 22 21 16 10 16 16 19 21 19 36 6 1 13 2 31 33 18 46 38
5 5 6 5 4 5 7 8 8 8 12 18 21 23 28 33 25 24 24 28 24 23 23 24 22 21 11 5 10 11 17 21 21 24 5 6 17 2 13 20 12 13 11
6 6 4 4 5 7 8 11 13 20 24 27 32 33 29 24 18 17 16 20 21 22 24 28 26 11 6 6 11 17 12 21 24 14 23 15 13 17 11 -2 26 7 6
3 3 5 7 10 12 17 22 25 22 28 36 28 18 17 18 15 15 14 13 19 22 28 28 17 8 7 9 17 15 18 22 16 20 14 13 18 32 22 22 -0 5 9
5 9 11 15 22 25 26 28 30 34 37 28 16 19 20 15 11 11 13 14 14 21 35 30 10 5 11 14 15 15 29 22 10 13 9 35 15 12 21 -4 -1 0 12
10 17 22 25 29 33 34 33 27 26 18 16 20 18 16 12 9 10 13 14 18 18 35 27 8 9 8 12 -7 15 22 26 8 28 35 18 27 14 12 15 0 6 2
24 26 34 34 29 25 17 22 17 13 17 17 18 17 18 17 15 15 14 15 19 14 42 20 9 10 9 15 1 15 24 6 16 22 13 8 17 41 -3 7 8 5 -4
26 36 11 8 14 21 23 8 15 17 14 15 13 13 11 14 20 20 13 19 15 12 48 17 9 7 13 8 6 22 22 5 19 13 11 10 5 12 -8 2 6 8 8
27 8 18 21 21 13 7 9 14 15 10 14 8 4 12 13 16 26 20 20 16 11 48 12 11 7 14 5 6 24 23 19 28 18 15 25 17 -3 5 6 8 10 10
12 15 23 17 10 6 9 16 17 14 8 17 9 5 21 18 9 18 24 19 20 15 40 8 10 10 15 12 1 16 19 21 21 9 11 -1 -1 6 8 8 8 10 15
22 25 14 7 10 14 17 15 13 12 13 17 18 6 24 24 8 10 21 21 22 27 27 11 11 11 8 7 17 9 24 25 17 17 12 7 9 8 7 10 10 19 24
21 11 9 13 15 15 15 14 20 20 14 17 19 19 19 23 18 5 16 21 22 43 14 15 10 13 7 9 19 16 27 21 3 7 -0 8 8 10 11 12 27 14 3
13 13 14 16 17 14 14 11 12 12 13 19 14 22 10 14 25 23 13 27 18 46 12 11 12 7 3 12 16 35 12 4 3 3 8 9 11 10 15 30 7 5 6
Height
5730 5724 5718 5712 5706 5699 5692 5686 5679 5673 5666 5659 5652 5645 5639 5632 5625 5619 5612 5607 5601 5595 5590 5585 5583 5580 5576 5572 5571 5569 5564 5558 5549 5555 5550 5552 5549 5547 5544 5541 5539 5536 5536
5715 5709 5703 5696 5689 5683 5675 5668 5661 5655 5648 5640 5632 5625 5618 5610 5604 5597 5592 5586 5579 5574 5569 5565 5561 5557 5552 5548 5545 5544 5542 5541 5533 5530 5535 5532 5528 5529 5525 5523 5523 5520 5521
5699 5693 5687 5680 5673 5666 5659 5651 5642 5635 5627 5620 5612 5604 5596 5588 5581 5575 5567 5563 5559 5555 5552 5547 5542 5537 5532 5529 5526 5522 5520 5519 5517 5511 5514 5512 5511 5512 5509 5506 5506 5505 5505
5683 5676 5669 5662 5654 5646 5637 5630 5622 5614 5606 5599 5591 5582 5574 5568 5561 5553 5546 5541 5537 5534 5531 5527 5523 5518 5514 5510 5507 5504 5500 5496 5495 5492 5493 5495 5494 5493 5492 5490 5490 5489 5490
5666 5658 5649 5641 5633 5623 5615 5607 5599 5590 5582 5575 5567 5560 5552 5544 5538 5530 5524 5522 5519 5516 5512 5506 5502 5498 5494 5489 5485 5485 5481 5478 5477 5474 5473 5474 5476 5474 5476 5471 5474 5473 5474
5645 5636 5627 5618 5608 5599 5591 5583 5573 5565 5557 5550 5544 5537 5532 5526 5518 5510 5501 5501 5495 5492 5489 5485 5480 5476 5472 5468 5466 5463 5462 5460 5458 5455 5455 5455 5457 5454 5453 5451 5455 5453 5453
5623 5613 5603 5594 5585 5575 5565 5556 5548 5541 5534 5527 5520 5513 5507 5501 5492 5485 5479 5478 5475 5470 5465 5461 5460 5456 5451 5446 5446 5444 5443 5442 5437 5435 5435 5437 5435 5436 5433 5434 5438 5439 5442
5601 5589 5578 5568 5560 5551 5543 5535 5528 5521 5514 5507 5501 5493 5486 5480 5469 5462 5459 5455 5453 5450 5444 5439 5438 5436 5429 5422 5420 5423 5424 5423 5421 5416 5413 5415 5414 5416 5417 5420 5422 5420 5422
5575 5564 5554 5545 5538 5530 5523 5515 5507 5501 5494 5487 5480 5474 5466 5459 5448 5442 5436 5432 5430 5427 5424 5419 5415 5412 5408 5400 5397 5398 5402 5404 5399 5397 5397 5397 5397 5399 5402 5403 5406 5406 5406
5552 5543 5534 5526 5519 5513 5505 5496 5489 5481 5475 5468 5462 5454 5446 5438 5428 5420 5412 5406 5405 5403 5402 5398 5394 5387 5384 5379 5375 5375 5377 5380 5379 5380 5380 5382 5384 5385 5389 5391 5391 5392 5392
5534 5526 5518 5510 5502 5494 5487 5479 5472 5464 5457 5449 5442 5434 5425 5415 5405 5395 5386 5378 5375 5372 5374 5374 5371 5365 5362 5361 5357 5356 5356 5357 5359 5361 5364 5368 5370 5372 5376 5377 5378 5378 5381
5518 5510 5502 5495 5487 5479 5471 5464 5455 5444 5436 5428 5419 5411 5402 5391 5380 5369 5361 5354 5348 5343 5346 5347 5346 5345 5344 5344 5343 5342 5340 5339 5341 5345 5351 5357 5358 5361 5364 5365 5365 5366 5369
5502 5495 5487 5480 5471 5463 5454 5445 5435 5424 5413 5404 5395 5385 5377 5366 5354 5343 5336 5331 5326 5321 5322 5323 5324 5327 5328 5329 5329 5328 5329 5329 5331 5335 5340 5346 5348 5351 5351 5353 5354 5355 5357
5487 5479 5471 5463 5456 5446 5435 5423 5413 5402 5391 5380 5370 5361 5352 5344 5331 5321 5316 5313 5307 5304 5303 5305 5307 5311 5314 5316 5316 5318 5318 5320 5321 5325 5331 5336 5339 5342 5343 5344 5344 5345 5348
5470 5461 5453 5444 5434 5425 5415 5401 5391 5380 5363 5352 5343 5334 5326 5321 5312 5305 5300 5298 5294 5291 5290 5291 5294 5298 5302 5304 5307 5307 5309 5310 5312 5317 5323 5327 5331 5333 5336 5337 5338 5340 5343
5452 5442 5432 5421 5411 5400 5388 5382 5371 5355 5343 5330 5320 5311 5308 5301 5295 5291 5290 5286 5281 5278 5279 5280 5283 5288 5293 5296 5299 5300 5300 5302 5306 5311 5316 5319 5323 5326 5329 5332 5332 5335 5338
5431 5421 5411 5398 5385 5373 5361 5349 5340 5337 5324 5313 5305 5299 5293 5290 5284 5280 5278 5275 5271 5270 5269 5270 5276 5281 5286 5289 5291 5293 5295 5297 5301 5305 5310 5314 5316 5319 5322 5325 5327 5330 5332
5412 5398 5384 5374 5360 5348 5336 5326 5316 5308 5305 5302 5295 5288 5283 5279 5275 5271 5270 5268 5265 5262 5261 5263 5270 5275 5280 5284 5287 5289 5290 5293 5297 5301 5305 5307 5310 5313 5317 5320 5323 5326 5327
5390 5375 5362 5350 5338 5325 5315 5306 5299 5294 5289 5286 5283 5279 5273 5270 5265 5262 5261 5259 5258 5255 5254 5259 5265 5270 5274 5278 5282 5284 5286 5289 5294 5297 5300 5303 5306 5308 5312 5316 5319 5322 5322
5369 5355 5341 5330 5320 5310 5303 5296 5289 5284 5279 5275 5272 5268 5266 5262 5258 5255 5252 5250 5250 5249 5250 5255 5260 5265 5270 5274 5278 5281 5283 5288 5291 5294 5296 5301 5304 5307 5310 5315 5318 5318 5317
5351 5340 5328 5319 5310 5301 5294 5288 5281 5275 5271 5268 5265 5260 5256 5251 5249 5248 5246 5244 5243 5244 5246 5252 5257 5261 5266 5271 5276 5279 5282 5286 5289 5292 5295 5300 5304 5306 5311 5314 5314 5314 5311
5335 5326 5316 5306 5298 5291 5285 5278 5273 5267 5262 5259 5257 5253 5249 5244 5241 5240 5238 5238 5238 5239 5243 5249 5254 5258 5264 5270 5274 5277 5281 5285 5288 5291 5295 5299 5303 5308 5310 5311 5311 5310 5307
5321 5311 5303 5295 5287 5281 5274 5268 5262 5258 5254 5250 5248 5245 5240 5237 5235 5233 5231 5232 5233 5235 5240 5247 5252 5257 5263 5270 5274 5277 5281 5284 5287 5292 5297 5301 5305 5308 5309 5310 5308 5307 5304
5306 5297 5290 5283 5276 5270 5263 5257 5253 5248 5243 5240 5237 5235 5231 5228 5228 5228 5226 5227 5229 5232 5238 5245 5251 5256 5264 5270 5273 5277 5281 5285 5290 5295 5301 5304 5306 5307 5308 5308 5308 5305 5302
5292 5285 5279 5272 5265 5259 5254 5247 5241 5237 5233 5230 5227 5226 5223 5221 5221 5222 5222 5223 5225 5229 5237 5244 5250 5258 5265 5270 5274 5278 5282 5288 5294 5300 5303 5305 5307 5309 5309 5308 5307 5305 5303
5281 5273 5266 5260 5254 5248 5242 5237 5231 5227 5223 5220 5218 5217 5216 5215 5215 5216 5218 5220 5223 5228 5237 5243 5251 5260 5266 5270 5275 5280 5286 5292 5299 5303 5306 5308 5310 5311 5311 5310 5310 5309 5305